H1 CPF 2 NER 2022 5 4 9 124 01 glonass127 H2 1106403 9127 37869 2022 5 4 0 0 0 2022 5 7 23 45 0 900 1 1 0 0 0 1 H9 10 0 59703 0.00000 0 11086916.605 410380.821 23030214.233 10 0 59703 900.00000 0 11582175.131 3164322.273 22564963.838 10 0 59703 1800.00000 0 12257239.627 5793800.795 21664182.696 10 0 59703 2700.00000 0 13081475.071 8237635.569 20345060.910 10 0 59703 3600.00000 0 14014404.117 10442045.191 18632839.911 10 0 59703 4500.00000 0 15007412.276 12362631.147 16560352.547 10 0 59703 5400.00000 0 16005813.722 13965980.558 14167419.196 10 0 59703 6300.00000 0 16951193.910 15230822.023 11500108.773 10 0 59703 7200.00000 0 17783933.163 16148685.853 8609876.208 10 0 59703 8100.00000 0 18445806.903 16724039.945 5552590.473 10 0 59703 9000.00000 0 18882553.921 16973893.914 2387469.813 10 0 59703 9900.00000 0 19046304.244 16926886.024 -824056.615 10 0 59703 10800.00000 0 18897762.832 16621889.492 -4019539.449 10 0 59703 11700.00000 0 18408054.646 16106195.260 -7136729.109 10 0 59703 12600.00000 0 17560150.054 15433346.981 -10114800.499 10 0 59703 13500.00000 0 16349806.856 14660719.472 -12895557.309 10 0 59703 14400.00000 0 14785985.372 13846943.639 -15424590.539 10 0 59703 15300.00000 0 12890715.637 13049288.185 -17652366.413 10 0 59703 16200.00000 0 10698419.227 12321110.940 -19535220.137 10 0 59703 17100.00000 0 8254711.990 11709490.025 -21036233.821 10 0 59703 18000.00000 0 5614736.615 11253137.651 -22125979.323 10 0 59703 18900.00000 0 2841094.555 10980687.145 -22783109.802 10 0 59703 19800.00000 0 1464.240 10909427.611 -22994787.215 10 0 59703 20700.00000 0 -2833993.580 11044541.039 -22756936.600 10 0 59703 21600.00000 0 -5595333.581 11378874.678 -22074322.043 10 0 59703 22500.00000 0 -8215512.401 11893258.025 -20960443.114 10 0 59703 23400.00000 0 -10632950.432 12557350.024 -19437254.647 10 0 59703 24300.00000 0 -12793861.053 13330978.966 -17534716.569 10 0 59703 25200.00000 0 -14654249.923 14165916.318 -15290184.135 10 0 59703 26100.00000 0 -16181501.439 15008007.098 -12747652.390 10 0 59703 27000.00000 0 -17355487.724 15799564.336 -9956871.634 10 0 59703 27900.00000 0 -18169156.227 16481924.312 -6972353.146 10 0 59703 28800.00000 0 -18628574.530 16998052.891 -3852286.651 10 0 59703 29700.00000 0 -18752434.187 17295091.859 -657392.336 10 0 59703 30600.00000 0 -18571038.321 17326737.453 2550268.860 10 0 59703 31500.00000 0 -18124819.165 17055351.231 5708502.521 10 0 59703 32400.00000 0 -17462451.101 16453715.440 8756181.862 10 0 59703 33300.00000 0 -16638640.939 15506360.626 11634419.660 10 0 59703 34200.00000 0 -15711689.789 14210411.591 14287689.186 10 0 59703 35100.00000 0 -14740929.383 12575918.064 16664874.044 10 0 59703 36000.00000 0 -13784139.864 10625657.740 18720228.706 10 0 59703 36900.00000 0 -12895055.869 8394420.941 20414233.566 10 0 59703 37800.00000 0 -12121063.280 5927806.855 21714330.624 10 0 59703 38700.00000 0 -11501180.553 3280580.726 22595528.182 10 0 59703 39600.00000 0 -11064406.633 514658.665 23040865.066 10 0 59703 40500.00000 0 -10828502.303 -2303198.746 23041727.248 10 0 59703 41400.00000 0 -10799254.386 -5103891.602 22598011.828 10 0 59703 42300.00000 0 -10970252.830 -7818584.070 21718135.557 10 0 59703 43200.00000 0 -11323190.194 -10381301.764 20418887.264 10 0 59703 44100.00000 0 -11828672.162 -12731418.628 18725125.734 10 0 59703 45000.00000 0 -12447507.054 -14815932.751 16669326.968 10 0 59703 45900.00000 0 -13132422.756 -16591438.456 14290987.092 10 0 59703 46800.00000 0 -13830141.704 -18025713.549 11635889.697 10 0 59703 47700.00000 0 -14483729.267 -19098855.437 8755249.019 10 0 59703 48600.00000 0 -15035118.808 -19803917.767 5704742.943 10 0 59703 49500.00000 0 -15427708.316 -20147019.314 2543452.330 10 0 59703 50400.00000 0 -15608919.390 -20146918.447 -667274.225 10 0 59703 51300.00000 0 -15532609.773 -19834068.909 -3865009.070 10 0 59703 52200.00000 0 -15161235.666 -19249194.673 -6987464.606 10 0 59703 53100.00000 0 -14467669.710 -18441442.448 -9973718.332 10 0 59703 54000.00000 0 -13436594.417 -17466188.994 -12765418.699 10 0 59703 54900.00000 0 -12065408.407 -16382595.851 -15307946.426 10 0 59703 55800.00000 0 -10364603.486 -15251015.631 -17551506.360 10 0 59703 56700.00000 0 -8357593.205 -14130360.990 -19452126.288 10 0 59703 57600.00000 0 -6079997.285 -13075549.533 -20972540.925 10 0 59703 58500.00000 0 -3578410.024 -12135134.913 -22082941.685 10 0 59703 59400.00000 0 -908703.274 -11349226.492 -22761575.913 10 0 59703 60300.00000 0 1866065.108 -10747787.365 -22995182.603 10 0 59703 61200.00000 0 4678049.101 -10349384.064 -22779255.311 10 0 59703 62100.00000 0 7457217.227 -10160441.416 -22118126.904 10 0 59703 63000.00000 0 10134049.922 -10175033.852 -21024874.786 10 0 59703 63900.00000 0 12642217.263 -10375221.053 -19521049.234 10 0 59703 64800.00000 0 14921124.094 -10731912.022 -17636231.360 10 0 59703 65700.00000 0 16918215.555 -11206218.775 -15407430.911 10 0 59703 66600.00000 0 18590946.676 -11751239.802 -12878337.524 10 0 59703 67500.00000 0 19908334.689 -12314195.099 -10098442.100 10 0 59703 68400.00000 0 20852030.950 -12838819.893 -7122047.453 10 0 59703 69300.00000 0 21416870.177 -13267913.600 -4007189.597 10 0 59703 70200.00000 0 21610877.291 -13545934.634 -814492.455 10 0 59703 71100.00000 0 21454735.202 -13621530.498 2394020.361 10 0 59703 72000.00000 0 20980739.525 -13449896.205 5556132.506 10 0 59703 72900.00000 0 20231287.529 -12994862.146 8610636.868 10 0 59703 73800.00000 0 19256967.516 -12230624.641 11498509.473 10 0 59703 74700.00000 0 18114330.799 -11143048.057 14164033.432 10 0 59703 75600.00000 0 16863440.704 -9730485.511 16555852.766 10 0 59703 76500.00000 0 15565301.216 -8004085.404 18627937.758 10 0 59703 77400.00000 0 14279271.912 -5987572.141 20340445.565 10 0 59703 78300.00000 0 13060575.449 -3716510.683 21660462.087 10 0 59703 79200.00000 0 11957999.338 -1237085.216 22562613.326 10 0 59703 80100.00000 0 11011885.345 1395558.475 23029536.672 10 0 59703 81000.00000 0 10252487.865 4119340.210 23052204.878 10 0 59703 81900.00000 0 9698767.611 6867560.972 22630097.565 10 0 59703 82800.00000 0 9357669.505 9571414.090 21771217.366 10 0 59703 83700.00000 0 9223914.301 12162591.489 20491949.925 10 0 59703 84600.00000 0 9280312.931 14575880.420 18816769.249 10 0 59703 85500.00000 0 9498591.631 16751645.743 16777792.164 10 0 59704 0.00000 0 9840695.093 18638096.810 14414188.313 10 0 59704 900.00000 0 10260515.501 20193246.911 11771452.956 10 0 59704 1800.00000 0 10705976.745 21386481.434 8900557.188 10 0 59704 2700.00000 0 11121388.885 22199672.024 5856985.099 10 0 59704 3600.00000 0 11449974.830 22627786.054 2699677.453 10 0 59704 4500.00000 0 11636463.528 22678964.831 -510100.394 10 0 59704 5400.00000 0 11629639.892 22374064.741 -3709945.075 10 0 59704 6300.00000 0 11384742.361 21745678.258 -6837533.381 10 0 59704 7200.00000 0 10865604.456 20836674.069 -9831847.578 10 0 59704 8100.00000 0 10046446.669 19698316.441 -12634382.777 10 0 59704 9000.00000 0 8913239.319 18388042.510 -15190311.009 10 0 59704 9900.00000 0 7464575.021 16966991.501 -17449577.032 10 0 59704 10800.00000 0 5712010.220 15497391.121 -19367902.225 10 0 59704 11700.00000 0 3679858.156 14039913.036 -20907674.667 10 0 59704 12600.00000 0 1404439.463 12651111.057 -22038705.874 10 0 59704 13500.00000 0 -1067179.826 11381052.208 -22738837.718 10 0 59704 14400.00000 0 -3678910.679 10271242.572 -22994386.365 10 0 59704 15300.00000 0 -6367751.541 9352936.883 -22800413.768 10 0 59704 16200.00000 0 -9066197.724 8645903.987 -22160821.174 10 0 59704 17100.00000 0 -11704847.652 8157700.269 -21088263.083 10 0 59704 18000.00000 0 -14215095.369 7883480.859 -19603884.118 10 0 59704 18900.00000 0 -16531795.357 7806354.958 -17736885.148 10 0 59704 19800.00000 0 -18595787.216 7898267.914 -15523928.669 10 0 59704 20700.00000 0 -20356174.058 8121369.987 -13008396.943 10 0 59704 21600.00000 0 -21772259.645 8429810.864 -10239519.350 10 0 59704 22500.00000 0 -22815064.336 8771881.005 -7271388.026 10 0 59704 23400.00000 0 -23468358.274 9092406.514 -4161883.033 10 0 59704 24300.00000 0 -23729171.250 9335294.003 -971529.767 10 0 59704 25200.00000 0 -23607761.085 9446116.311 2237687.740 10 0 59704 26100.00000 0 -23127045.282 9374629.092 5403533.477 10 0 59704 27000.00000 0 -22321523.201 9077112.045 8464722.274 10 0 59704 27900.00000 0 -21235736.928 8518436.851 11362095.680 10 0 59704 28800.00000 0 -19922337.684 7673776.070 14039748.909 10 0 59704 29700.00000 0 -18439840.201 6529882.797 16446088.589 10 0 59704 30600.00000 0 -16850159.438 5085888.993 18534802.899 10 0 59704 31500.00000 0 -15216032.068 3353590.533 20265727.659 10 0 59704 32400.00000 0 -13598428.871 1357207.812 21605594.314 10 0 59704 33300.00000 0 -12054063.753 -867367.986 22528647.922 10 0 59704 34200.00000 0 -10633100.578 -3273812.363 23017125.463 10 0 59704 35100.00000 0 -9377150.541 -5807038.965 23061587.135 10 0 59704 36000.00000 0 -8317640.868 -8405238.154 22661095.384 10 0 59704 36900.00000 0 -7474620.781 -11002201.150 21823238.649 10 0 59704 37800.00000 0 -6856053.081 -13529836.822 20563998.951 10 0 59704 38700.00000 0 -6457620.438 -15920780.213 18907464.701 10 0 59704 39600.00000 0 -6263054.921 -18110987.628 16885392.381 10 0 59704 40500.00000 0 -6244978.178 -20042213.033 14536623.177 10 0 59704 41400.00000 0 -6366218.874 -21664264.473 11906363.043 10 0 59704 42300.00000 0 -6581554.266 -22936947.103 9045337.417 10 0 59704 43200.00000 0 -6839804.779 -23831611.464 6008834.258 10 0 59704 44100.00000 0 -7086195.124 -24332240.979 2855651.702 10 0 59704 45000.00000 0 -7264883.517 -24436031.062 -353030.819 10 0 59704 45900.00000 0 -7321552.381 -24153433.078 -3554837.036 10 0 59704 46800.00000 0 -7205950.254 -23507658.656 -6687411.045 10 0 59704 47700.00000 0 -6874275.632 -22533662.742 -9689642.878 10 0 59704 48600.00000 0 -6291299.241 -21276646.251 -12502877.345 10 0 59704 49500.00000 0 -5432131.626 -19790140.092 -15072080.790 10 0 59704 50400.00000 0 -4283557.646 -18133750.899 -17346940.777 10 0 59704 51300.00000 0 -2844877.752 -16370663.835 -19282874.953 10 0 59704 52200.00000 0 -1128217.027 -14565008.816 -20841927.119 10 0 59704 53100.00000 0 841713.933 -12779202.813 -21993530.822 10 0 59704 54000.00000 0 3028398.427 -11071382.072 -22715123.905 10 0 59704 54900.00000 0 5384801.922 -9493034.289 -22992600.622 10 0 59704 55800.00000 0 7855115.466 -8086932.066 -22820591.711 10 0 59704 56700.00000 0 10376880.742 -6885455.640 -22202566.671 10 0 59704 57600.00000 0 12883406.730 -5909375.791 -21150756.500 10 0 59704 58500.00000 0 15306375.268 -5167147.611 -19685899.116 10 0 59704 59400.00000 0 17578524.908 -4654743.418 -17836813.656 10 0 59704 60300.00000 0 19636299.360 -4356029.594 -15639813.450 10 0 59704 61200.00000 0 21422348.619 -4243668.588 -13137971.019 10 0 59704 62100.00000 0 22887777.753 -4280504.705 -10380251.426 10 0 59704 63000.00000 0 23994049.614 -4421371.734 -7420532.927 10 0 59704 63900.00000 0 24714462.995 -4615242.782 -4316536.097 10 0 59704 64800.00000 0 25035146.337 -4807628.596 -1128684.043 10 0 59704 65700.00000 0 24955528.039 -4943120.792 2081082.651 10 0 59704 66600.00000 0 24488266.692 -4967971.132 5250512.129 10 0 59704 67500.00000 0 23658647.430 -4832597.362 8318244.803 10 0 59704 68400.00000 0 22503472.651 -4493910.154 11224991.067 10 0 59704 69300.00000 0 21069496.135 -3917364.067 13914661.154 10 0 59704 70200.00000 0 19411467.807 -3078647.694 16335426.758 10 0 59704 71100.00000 0 17589871.736 -1964943.610 18440695.902 10 0 59704 72000.00000 0 15668451.646 -575706.918 20189984.528 10 0 59704 72900.00000 0 13711626.011 1077069.029 21549670.600 10 0 59704 73800.00000 0 11781898.396 2969110.320 22493618.724 10 0 59704 74700.00000 0 9937368.319 5064633.068 23003665.497 10 0 59704 75600.00000 0 8229443.204 7317596.027 23069958.139 10 0 59704 76500.00000 0 6700843.697 9673385.209 22691141.054 10 0 59704 77400.00000 0 5383982.745 12070863.243 21874387.188 10 0 59704 78300.00000 0 4299783.885 14444701.671 20635273.245 10 0 59704 79200.00000 0 3456986.768 16727902.808 18997499.986 10 0 59704 80100.00000 0 2851968.623 18854409.626 16992461.186 10 0 59704 81000.00000 0 2469089.630 20761698.033 14658667.181 10 0 59704 81900.00000 0 2281549.066 22393245.700 12041031.384 10 0 59704 82800.00000 0 2252718.130 23700775.593 9190030.822 10 0 59704 83700.00000 0 2337895.436 24646180.607 6160754.274 10 0 59704 84600.00000 0 2486413.130 25203047.849 3011854.157 10 0 59704 85500.00000 0 2644006.264 25357716.810 -195579.080 10 0 59705 0.00000 0 2755346.036 25109824.603 -3399198.945 10 0 59705 900.00000 0 2766629.650 24472312.285 -6536620.212 10 0 59705 1800.00000 0 2628115.899 23470889.569 -9546642.928 10 0 59705 2700.00000 0 2296497.245 22142977.491 -12370463.823 10 0 59705 3600.00000 0 1737004.930 20536171.820 -14952845.435 10 0 59705 4500.00000 0 925154.706 18706290.745 -17243219.653 10 0 59705 5400.00000 0 -151944.276 16715088.702 -19196701.566 10 0 59705 6300.00000 0 -1494776.340 14627733.111 -20774991.543 10 0 59705 7200.00000 0 -3091139.323 12510151.400 -21947145.734 10 0 59705 8100.00000 0 -4916412.156 10426361.561 -22690198.240 10 0 59705 9000.00000 0 -6934360.483 8435900.226 -22989621.413 10 0 59705 9900.00000 0 -9098447.184 6591458.106 -22839614.487 10 0 59705 10800.00000 0 -11353592.828 4936823.355 -22243214.600 10 0 59705 11700.00000 0 -13638311.388 3505219.855 -21212228.264 10 0 59705 12600.00000 0 -15887130.305 2318110.068 -19766985.349 10 0 59705 13500.00000 0 -18033191.853 1384511.618 -17935921.564 10 0 59705 14400.00000 0 -20010925.179 700854.323 -15754999.075 10 0 59705 15300.00000 0 -21758675.581 251380.969 -13266978.436 10 0 59705 16200.00000 0 -23221179.933 9071.575 -10520558.020 10 0 59705 17100.00000 0 -24351784.332 -62951.479 -7569399.754 10 0 59705 18000.00000 0 -25114311.422 -9600.352 -4471062.245 10 0 59705 18900.00000 0 -25484500.531 118338.948 -1285863.839 10 0 59705 19800.00000 0 -25450962.267 266610.769 1924300.782 10 0 59705 20700.00000 0 -25015610.115 380033.949 5097166.354 10 0 59705 21600.00000 0 -24193553.893 405077.243 8171301.273 10 0 59705 22500.00000 0 -23012462.357 292357.060 11087287.144 10 0 59705 23400.00000 0 -21511424.277 -1047.209 13788851.505 10 0 59705 24300.00000 0 -19739357.559 -509556.595 16223933.272 10 0 59705 25200.00000 0 -17753034.033 -1257418.695 18345662.280 10 0 59705 26100.00000 0 -15614802.543 -2257465.098 20113236.303 10 0 59705 27000.00000 0 -13390104.429 -3510350.632 21492681.208 10 0 59705 27900.00000 0 -11144883.046 -5004305.264 22457482.186 10 0 59705 28800.00000 0 -8942992.681 -6715408.701 22989076.112 10 0 59705 29700.00000 0 -6843711.522 -8608376.826 23077197.513 10 0 59705 30600.00000 0 -4899458.882 -10637828.741 22720072.673 10 0 59705 31500.00000 0 -3153808.596 -12749983.958 21924458.641 10 0 59705 32400.00000 0 -1639878.595 -14884722.151 20705526.084 10 0 59705 33300.00000 0 -379161.842 -16977923.120 19086587.098 10 0 59705 34200.00000 0 619153.619 -18963992.955 17098671.459 10 0 59705 35100.00000 0 1358347.202 -20778474.296 14779957.088 10 0 59705 36000.00000 0 1853803.394 -22360634.344 12175063.031 10 0 59705 36900.00000 0 2132138.161 -23655924.143 9334215.845 10 0 59705 37800.00000 0 2229849.036 -24618206.878 6312302.870 10 0 59705 38700.00000 0 2191543.813 -25211661.370 3167828.392 10 0 59705 39600.00000 0 2067820.804 -25412279.367 -38208.668 10 0 59705 40500.00000 0 1912889.071 -25208891.407 -3243494.798 10 0 59705 41400.00000 0 1782028.913 -24603675.205 -6385616.987 10 0 59705 42300.00000 0 1729000.609 -23612122.027 -9403288.611 10 0 59705 43200.00000 0 1803512.669 -22262459.480 -12237561.071 10 0 59705 44100.00000 0 2048859.151 -20594552.433 -14832995.811 10 0 59705 45000.00000 0 2499829.066 -18658326.495 -17138771.652 10 0 59705 45900.00000 0 3180979.759 -16511779.374 -19109703.548 10 0 59705 46800.00000 0 4105350.728 -14218663.575 -20707150.589 10 0 59705 47700.00000 0 5273675.464 -11845938.553 -21899793.331 10 0 59705 48600.00000 0 6674127.301 -9461100.584 -22664263.509 10 0 59705 49500.00000 0 8282612.058 -7129504.039 -22985612.516 10 0 59705 50400.00000 0 10063596.269 -4911788.196 -22857608.561 10 0 59705 51300.00000 0 11971436.517 -2861518.952 -22282856.461 10 0 59705 52200.00000 0 13952153.519 -1023145.183 -21272737.866 10 0 59705 53100.00000 0 15945575.202 569644.230 -19847173.828 10 0 59705 54000.00000 0 17887757.249 1895094.555 -18034215.460 10 0 59705 54900.00000 0 19713577.688 2944042.843 -15869472.206 10 0 59705 55800.00000 0 21359394.861 3720033.859 -13395390.684 10 0 59705 56700.00000 0 22765655.877 4238892.626 -10660400.187 10 0 59705 57600.00000 0 23879345.234 4527775.281 -7717943.534 10 0 59705 58500.00000 0 24656170.683 4623742.017 -4625414.231 10 0 59705 59400.00000 0 25062395.281 4571916.097 -1443022.467 10 0 59705 60300.00000 0 25076240.167 4423309.925 1767386.529 10 0 59705 61200.00000 0 24688801.232 4232412.594 4943537.663 10 0 59705 62100.00000 0 23904443.755 4054642.536 8023930.804 10 0 59705 63000.00000 0 22740661.085 3943773.651 10949022.050 10 0 59705 63900.00000 0 21227405.796 3949443.341 13662359.231 10 0 59705 64800.00000 0 19405923.379 4114846.568 16111651.118 10 0 59705 65700.00000 0 17327138.527 4474711.472 18249751.609 10 0 59705 66600.00000 0 15049661.861 5053639.777 20035542.148 10 0 59705 67500.00000 0 12637499.660 5864879.810 21434697.950 10 0 59705 68400.00000 0 10157560.424 6909582.038 22420325.795 10 0 59705 69300.00000 0 7677059.660 8176567.332 22973463.424 10 0 59705 70200.00000 0 5260927.792 9642617.574 23083432.797 10 0 59705 71100.00000 0 2969325.491 11273277.298 22748041.746 10 0 59705 72000.00000 0 855366.402 13024134.650 21973630.599 10 0 59705 72900.00000 0 -1036861.172 14842530.803 20774962.684 10 0 59705 73800.00000 0 -2673893.781 16669629.676 19174959.678 10 0 59705 74700.00000 0 -4034048.487 18442764.941 17204285.183 10 0 59705 75600.00000 0 -5108087.244 20097969.666 14900782.194 10 0 59705 76500.00000 0 -5899362.014 21572585.738 12308772.597 10 0 59705 77400.00000 0 -6423433.518 22807845.955 9478229.497 10 0 59705 78300.00000 0 -6707178.084 23751321.775 6463835.680 10 0 59705 79200.00000 0 -6787418.277 24359134.055 3323944.121 10 0 59705 80100.00000 0 -6709133.170 24597832.817 119459.032 10 0 59705 81000.00000 0 -6523322.324 24445864.952 -3087341.885 10 0 59705 81900.00000 0 -6284612.935 23894565.278 -6234021.403 10 0 59705 82800.00000 0 -6048711.348 22948625.965 -9259208.727 10 0 59705 83700.00000 0 -5869807.717 21626021.213 -12103812.441 10 0 59705 84600.00000 0 -5798045.535 19957387.277 -14712195.094 10 0 59705 85500.00000 0 -5877165.648 17984881.412 -17033284.283 10 0 59706 0.00000 0 -6142427.520 15760566.215 -19021596.150 10 0 59706 900.00000 0 -6618899.128 13344385.166 -20638150.002 10 0 59706 1800.00000 0 -7320190.551 10801817.485 -21851251.394 10 0 59706 2700.00000 0 -8247688.026 8201307.523 -22637130.180 10 0 59706 3600.00000 0 -9390322.720 5611580.698 -22980416.938 10 0 59706 4500.00000 0 -10724885.468 3098958.958 -22874448.674 10 0 59706 5400.00000 0 -12216874.774 724789.915 -22321397.337 10 0 59706 6300.00000 0 -13821842.146 -1456901.519 -21332218.802 10 0 59706 7200.00000 0 -15487177.107 -3401439.983 -19926423.988 10 0 59706 8100.00000 0 -17154255.247 -5075120.340 -18131677.750 10 0 59706 9000.00000 0 -18760857.116 -6456355.385 -15983234.805 10 0 59706 9900.00000 0 -20243754.257 -7536304.399 -13523225.577 10 0 59706 10800.00000 0 -21541351.905 -8318959.041 -10799807.834 10 0 59706 11700.00000 0 -22596275.919 -8820686.472 -7866202.715 10 0 59706 12600.00000 0 -23357794.467 -9069252.720 -4779635.998 10 0 59706 13500.00000 0 -23783972.680 -9102371.422 -1600207.060 10 0 59706 14400.00000 0 -23843470.556 -8965842.766 1610290.983 10 0 59706 15300.00000 0 -23516910.019 -8711364.279 4789575.858 10 0 59706 16200.00000 0 -22797755.809 -8394108.187 7876081.520 10 0 59706 17100.00000 0 -21692675.547 -8070168.984 10810141.118 10 0 59706 18000.00000 0 -20221366.260 -7793989.259 13535125.232 10 0 59706 18900.00000 0 -18415856.711 -7615871.747 15998514.783 10 0 59706 19800.00000 0 -16319316.168 -7579681.069 18152889.788 10 0 59706 20700.00000 0 -13984420.125 -7720829.937 19956817.125 10 0 59706 21600.00000 0 -11471340.857 -8064632.368 21375622.747 10 0 59706 22500.00000 0 -8845445.226 -8625091.011 22382036.044 10 0 59706 23400.00000 0 -6174793.464 -9404167.862 22956696.214 10 0 59706 24300.00000 0 -3527539.910 -10391568.054 23088512.869 10 0 59706 25200.00000 0 -969340.325 -11565045.825 22774875.224 10 0 59706 26100.00000 0 1439130.069 -12891220.867 22021706.406 10 0 59706 27000.00000 0 3644448.088 -14326872.856 20843361.619 10 0 59706 27900.00000 0 5602412.186 -15820662.763 19262371.068 10 0 59706 28800.00000 0 7279630.254 -17315212.068 17309030.867 10 0 59706 29700.00000 0 8654660.801 -18749456.220 15020847.502 10 0 59706 30600.00000 0 9718660.199 -20061176.853 12441843.856 10 0 59706 31500.00000 0 10475508.310 -21189609.081 9621737.467 10 0 59706 32400.00000 0 10941405.990 -22078016.120 6615004.208 10 0 59706 33300.00000 0 11143959.640 -22676123.620 3479843.170 10 0 59706 34200.00000 0 11120789.366 -22942310.764 277061.133 10 0 59706 35100.00000 0 10917717.773 -22845464.239 -2931102.840 10 0 59706 36000.00000 0 10586614.573 -22366414.414 -6082190.158 10 0 59706 36900.00000 0 10182987.577 -21498889.989 -9114748.691 10 0 59706 37800.00000 0 9763422.301 -20249947.359 -11969546.979 10 0 59706 38700.00000 0 9382979.760 -18639853.089 -14590751.327 10 0 59706 39600.00000 0 9092664.558 -16701421.433 -16927040.598 10 0 59706 40500.00000 0 8937073.071 -14478832.284 -18932634.715 10 0 59706 41400.00000 0 8952324.166 -12025977.674 -20568214.457 10 0 59706 42300.00000 0 9164362.976 -9404405.639 -21801712.400 10 0 59706 43200.00000 0 9587712.190 -6680947.843 -22608957.742 10 0 59706 44100.00000 0 10224725.877 -3925131.283 -22974161.052 10 0 59706 45000.00000 0 11065378.904 -1206483.845 -22890228.496 10 0 59706 45900.00000 0 12087601.584 1408151.993 -22358899.115 10 0 59706 46800.00000 0 13258145.386 3857183.612 -21390702.560 10 0 59706 47700.00000 0 14533942.312 6086602.504 -20004738.823 10 0 59706 48600.00000 0 15863899.162 8051990.440 -18228285.334 10 0 59706 49500.00000 0 17191049.171 9720114.108 -16096240.587 10 0 59706 50400.00000 0 18454968.179 11070042.832 -13650416.959 10 0 59706 51300.00000 0 19594351.503 12093744.871 -10938698.490 10 0 59706 52200.00000 0 20549641.208 12796140.408 -8014082.094 10 0 59706 53100.00000 0 21265591.860 13194612.598 -4933622.967 10 0 59706 54000.00000 0 21693666.177 13318001.231 -1757306.580 10 0 59706 54900.00000 0 21794159.932 13205125.240 1453129.318 10 0 59706 55800.00000 0 21537967.631 12902899.807 4635398.573 10 0 59706 56700.00000 0 20907916.284 12464130.306 7727872.485 10 0 59706 57600.00000 0 19899613.222 11945078.055 10670764.357 10 0 59706 58500.00000 0 18521774.543 11402901.429 13407270.408 10 0 59706 59400.00000 0 16796022.433 10893080.116 15884646.311 10 0 59706 60300.00000 0 14756161.450 10466929.934 18055200.514 10 0 59706 61200.00000 0 12446964.947 10169311.028 19877187.305 10 0 59706 62100.00000 0 9922522.330 10036623.546 21315585.018 10 0 59706 63000.00000 0 7244215.055 10095172.638 22342746.928 10 0 59706 63900.00000 0 4478403.788 10359969.196 22938914.584 10 0 59706 64800.00000 0 1693920.142 10834015.052 23092585.715 10 0 59706 65700.00000 0 -1040536.165 11508101.758 22800730.934 10 0 59706 66600.00000 0 -3658990.204 12361131.531 22068855.682 10 0 59706 67500.00000 0 -6100670.757 13360948.037 20910906.055 10 0 59706 68400.00000 0 -8312275.575 14465644.286 19349019.299 10 0 59706 69300.00000 0 -10249931.343 15625295.524 17413122.088 10 0 59706 70200.00000 0 -11880768.559 16784047.573 15140382.040 10 0 59706 71100.00000 0 -13184046.491 17882476.151 12574520.355 10 0 59706 72000.00000 0 -14151781.031 18860120.806 9764996.094 10 0 59706 72900.00000 0 -14788848.180 19658089.046 6766075.166 10 0 59706 73800.00000 0 -15112557.281 20221622.193 3635799.661 10 0 59706 74700.00000 0 -15151709.910 20502514.873 434875.800 10 0 59706 75600.00000 0 -14945182.187 20461285.032 -2774499.067 10 0 59706 76500.00000 0 -14540088.635 20069000.775 -5929847.980 10 0 59706 77400.00000 0 -13989604.065 19308683.953 -8969640.318 10 0 59706 78300.00000 0 -13350535.309 18176227.789 -11834507.233 10 0 59706 79200.00000 0 -12680746.062 16680786.110 -14468421.180 10 0 59706 80100.00000 0 -12036545.201 14844614.317 -16819814.379 10 0 59706 81000.00000 0 -11470151.163 12702365.773 -18842612.115 10 0 59706 81900.00000 0 -11027342.228 10299870.871 -20497158.388 10 0 59706 82800.00000 0 -10745394.787 7692448.786 -21751013.613 10 0 59706 83700.00000 0 -10651399.420 4942822.212 -22579606.991 10 0 59706 84600.00000 0 -10761028.161 2118722.805 -22966729.369 10 0 59706 85500.00000 0 -11077806.672 -709711.315 -22904856.008 99